| time (UTC) | temp F | wind direction | speed MPH | gust MPH | rain 1hr in | rain 24hr in | rain mn in | humidity % | barometer mb |
| 20260507015006 | 69 | 214 | 1.0 | 3.0 | 0.00 | 0.16 | 0.16 | 86 | 1009.9 |
| 20260507014507 | 69 | 213 | 1.0 | 5.0 | 0.00 | 0.16 | 0.16 | 86 | 1010.0 |
| 20260507014006 | 69 | 238 | 2.0 | 5.0 | 0.00 | 0.16 | 0.16 | 86 | 1009.9 |
| 20260507013507 | 69 | 218 | 1.0 | 3.0 | 0.00 | 0.16 | 0.16 | 86 | 1010.0 |
| 20260507013006 | 69 | 219 | 2.0 | 3.0 | 0.00 | 0.16 | 0.16 | 86 | 1010.0 |
| 20260507012505 | 69 | 221 | 2.0 | 3.0 | 0.00 | 0.16 | 0.16 | 86 | 1009.9 |
| 20260507012005 | 69 | 221 | 2.0 | 3.0 | 0.00 | 0.16 | 0.16 | 86 | 1009.9 |
| 20260507011506 | 69 | 215 | 0.0 | 3.0 | 0.00 | 0.16 | 0.16 | 86 | 1009.9 |
| 20260507011006 | 69 | 221 | 0.0 | 3.0 | 0.00 | 0.16 | 0.16 | 85 | 1009.9 |
| 20260507010506 | 69 | 220 | 1.0 | 3.0 | 0.00 | 0.16 | 0.16 | 85 | 1009.8 |
| 20260507010006 | 69 | 222 | 2.0 | 3.0 | 0.00 | 0.16 | 0.16 | 85 | 1009.7 |
| 20260507005505 | 69 | 222 | 2.0 | 3.0 | 0.00 | 0.16 | 0.16 | 84 | 1009.5 |
| 20260507005006 | 69 | 222 | 1.0 | 3.0 | 0.00 | 0.16 | 0.16 | 84 | 1009.5 |
| 20260507004505 | 69 | 222 | 2.0 | 3.0 | 0.00 | 0.16 | 0.16 | 84 | 1009.8 |
| 20260507004007 | 69 | 213 | 2.0 | 3.0 | 0.00 | 0.16 | 0.16 | 84 | 1009.8 |
| 20260507003505 | 69 | 221 | 2.0 | 3.0 | 0.00 | 0.16 | 0.16 | 84 | 1010.0 |
| 20260507003005 | 69 | 207 | 3.0 | 3.0 | 0.00 | 0.16 | 0.16 | 83 | 1010.0 |
| 20260507002506 | 70 | 205 | 1.0 | 3.0 | 0.00 | 0.16 | 0.16 | 83 | 1009.9 |
| 20260507002006 | 70 | 213 | 2.0 | 5.0 | 0.00 | 0.16 | 0.16 | 83 | 1009.9 |
| 20260507001506 | 70 | 224 | 3.0 | 5.0 | 0.00 | 0.16 | 0.16 | 83 | 1009.9 |
| 20260507001006 | 70 | 230 | 2.0 | 6.0 | 0.00 | 0.16 | 0.16 | 82 | 1010.0 |
| 20260507000506 | 70 | 230 | 3.0 | 6.0 | 0.00 | 0.16 | 0.16 | 82 | 1010.0 |
| 20260507000006 | 70 | 230 | 3.0 | 6.0 | 0.00 | 0.16 | 0.16 | 82 | 1010.0 |
| 20260506235506 | 70 | 224 | 3.0 | 6.0 | 0.00 | 0.16 | 0.16 | 82 | 1009.9 |
| 20260506235006 | 70 | 220 | 3.0 | 6.0 | 0.00 | 0.16 | 0.16 | 81 | 1009.7 |
| 20260506234505 | 71 | 228 | 3.0 | 6.0 | 0.00 | 0.16 | 0.16 | 81 | 1009.7 |
| 20260506234006 | 71 | 227 | 3.0 | 6.0 | 0.00 | 0.16 | 0.16 | 81 | 1009.5 |
| 20260506233506 | 71 | 225 | 2.0 | 6.0 | 0.00 | 0.16 | 0.16 | 81 | 1009.5 |
| 20260506233006 | 71 | 208 | 3.0 | 6.0 | 0.00 | 0.16 | 0.16 | 80 | 1009.5 |
| 20260506232505 | 71 | 220 | 3.0 | 8.0 | 0.00 | 0.16 | 0.16 | 80 | 1009.5 |
| 20260506232007 | 71 | 223 | 3.0 | 8.0 | 0.00 | 0.16 | 0.16 | 80 | 1009.5 |
| 20260506231506 | 71 | 218 | 3.0 | 7.0 | 0.00 | 0.16 | 0.16 | 80 | 1009.5 |
| 20260506231006 | 71 | 224 | 3.0 | 7.0 | 0.00 | 0.16 | 0.16 | 79 | 1009.6 |
| 20260506230506 | 71 | 219 | 2.0 | 8.0 | 0.00 | 0.16 | 0.16 | 80 | 1009.4 |
| 20260506230006 | 71 | 219 | 5.0 | 8.0 | 0.00 | 0.16 | 0.16 | 79 | 1009.5 |
| 20260506225506 | 71 | 217 | 3.0 | 6.0 | 0.00 | 0.16 | 0.16 | 79 | 1009.5 |
| 20260506225006 | 71 | 204 | 3.0 | 5.0 | 0.00 | 0.16 | 0.16 | 79 | 1009.5 |
| 20260506224505 | 71 | 226 | 2.0 | 7.0 | 0.00 | 0.16 | 0.16 | 79 | 1009.6 |
| 20260506224006 | 71 | 224 | 3.0 | 7.0 | 0.00 | 0.16 | 0.16 | 79 | 1009.5 |
| 20260506223506 | 71 | 227 | 2.0 | 9.0 | 0.00 | 0.16 | 0.16 | 79 | 1009.6 |
| 20260506223006 | 71 | 214 | 5.0 | 9.0 | 0.00 | 0.16 | 0.16 | 78 | 1009.5 |
| 20260506222506 | 71 | 195 | 3.0 | 8.0 | 0.00 | 0.16 | 0.16 | 78 | 1009.6 |
| 20260506222005 | 71 | 223 | 3.0 | 10.0 | 0.00 | 0.16 | 0.16 | 78 | 1009.6 |
| 20260506221506 | 71 | 227 | 5.0 | 10.0 | 0.00 | 0.16 | 0.16 | 78 | 1009.6 |
| 20260506221005 | 71 | 220 | 5.0 | 10.0 | 0.00 | 0.16 | 0.16 | 78 | 1009.6 |
| 20260506220505 | 71 | 230 | 3.0 | 9.0 | 0.00 | 0.16 | 0.16 | 78 | 1009.5 |
| 20260506220006 | 71 | 221 | 5.0 | 9.0 | 0.00 | 0.16 | 0.16 | 78 | 1009.5 |
| 20260506215506 | 71 | 227 | 5.0 | 8.0 | 0.00 | 0.16 | 0.16 | 78 | 1009.5 |
| 20260506215006 | 71 | 197 | 3.0 | 9.0 | 0.00 | 0.16 | 0.16 | 78 | 1009.5 |
| 20260506214505 | 71 | 223 | 4.0 | 9.0 | 0.00 | 0.16 | 0.16 | 78 | 1009.5 |
| 20260506214005 | 71 | 219 | 5.0 | 9.0 | 0.00 | 0.16 | 0.16 | 78 | 1009.6 |
| 20260506213506 | 71 | 230 | 4.0 | 9.0 | 0.00 | 0.16 | 0.16 | 78 | 1009.6 |
| 20260506213006 | 71 | 213 | 4.0 | 10.0 | 0.00 | 0.16 | 0.16 | 78 | 1009.6 |
| 20260506212506 | 71 | 228 | 3.0 | 10.0 | 0.00 | 0.16 | 0.16 | 79 | 1009.6 |
| 20260506212006 | 71 | 221 | 3.0 | 12.0 | 0.00 | 0.16 | 0.16 | 79 | 1009.8 |
| 20260506211506 | 71 | 234 | 5.0 | 12.0 | 0.00 | 0.16 | 0.16 | 79 | 1009.8 |
| 20260506211006 | 71 | 219 | 2.0 | 12.0 | 0.00 | 0.16 | 0.16 | 80 | 1009.7 |
| 20260506210506 | 71 | 222 | 4.0 | 12.0 | 0.00 | 0.16 | 0.16 | 80 | 1009.6 |
| 20260506210006 | 71 | 222 | 4.0 | 9.0 | 0.00 | 0.16 | 0.16 | 81 | 1009.6 |
| 20260506205506 | 71 | 218 | 4.0 | 9.0 | 0.00 | 0.16 | 0.16 | 80 | 1009.7 |
| 20260506205006 | 71 | 238 | 2.0 | 8.0 | 0.00 | 0.16 | 0.16 | 82 | 1009.8 |
| 20260506204505 | 71 | 232 | 2.0 | 8.0 | 0.00 | 0.16 | 0.16 | 82 | 1009.8 |
| 20260506204006 | 71 | 222 | 2.0 | 8.0 | 0.00 | 0.16 | 0.16 | 83 | 1009.7 |
| 20260506203505 | 70 | 225 | 4.0 | 8.0 | 0.00 | 0.16 | 0.16 | 85 | 1009.6 |
| 20260506203006 | 69 | 218 | 2.0 | 3.0 | 0.00 | 0.16 | 0.16 | 85 | 1009.5 |
| 20260506202506 | 69 | 198 | 0.0 | 0.0 | 0.00 | 0.16 | 0.16 | 85 | 1009.6 |
| 20260506202007 | 69 | 198 | 0.0 | 3.0 | 0.00 | 0.16 | 0.16 | 85 | 1009.7 |
| 20260506201507 | 69 | 198 | 0.0 | 3.0 | 0.00 | 0.16 | 0.16 | 85 | 1009.7 |
| 20260506201007 | 69 | 233 | 2.0 | 3.0 | 0.00 | 0.16 | 0.16 | 85 | 1009.8 |
| 20260506200506 | 69 | 239 | 1.0 | 3.0 | 0.00 | 0.16 | 0.16 | 85 | 1009.9 |
| 20260506200006 | 68 | 197 | 1.0 | 5.0 | 0.01 | 0.16 | 0.16 | 85 | 1009.8 |
| 20260506195505 | 68 | 229 | 2.0 | 5.0 | 0.01 | 0.16 | 0.16 | 86 | 1009.7 |
| 20260506195005 | 68 | 207 | 2.0 | 5.0 | 0.01 | 0.16 | 0.16 | 86 | 1009.2 |
| 20260506194506 | 68 | 238 | 2.0 | 3.0 | 0.01 | 0.16 | 0.16 | 86 | 1009.3 |
| 20260506194006 | 67 | 221 | 2.0 | 7.0 | 0.01 | 0.16 | 0.16 | 87 | 1009.0 |
| 20260506193506 | 67 | 196 | 3.0 | 7.0 | 0.01 | 0.16 | 0.16 | 87 | 1009.1 |
| 20260506193006 | 67 | 226 | 4.0 | 7.0 | 0.01 | 0.16 | 0.16 | 87 | 1009.1 |
| 20260506192507 | 67 | 213 | 3.0 | 7.0 | 0.01 | 0.16 | 0.16 | 88 | 1009.3 |
| 20260506192006 | 66 | 223 | 3.0 | 7.0 | 0.01 | 0.16 | 0.16 | 88 | 1009.5 |
| 20260506191506 | 66 | 219 | 3.0 | 7.0 | 0.01 | 0.16 | 0.16 | 89 | 1009.7 |
| 20260506191006 | 66 | 223 | 3.0 | 6.0 | 0.01 | 0.16 | 0.16 | 89 | 1009.9 |
| 20260506190505 | 66 | 203 | 3.0 | 7.0 | 0.01 | 0.16 | 0.16 | 89 | 1010.0 |
| 20260506190007 | 66 | 221 | 5.0 | 8.0 | 0.00 | 0.15 | 0.15 | 90 | 1010.3 |
| 20260506185505 | 66 | 230 | 3.0 | 8.0 | 0.00 | 0.15 | 0.15 | 90 | 1010.4 |
| 20260506185006 | 65 | 227 | 2.0 | 8.0 | 0.00 | 0.15 | 0.15 | 90 | 1010.2 |
| 20260506184506 | 65 | 216 | 4.0 | 8.0 | 0.00 | 0.15 | 0.15 | 90 | 1010.2 |
| 20260506184006 | 65 | 229 | 4.0 | 12.0 | 0.00 | 0.15 | 0.15 | 90 | 1010.2 |
| 20260506183506 | 65 | 231 | 6.0 | 12.0 | 0.00 | 0.15 | 0.15 | 89 | 1010.4 |
| 20260506183006 | 65 | 231 | 4.0 | 8.0 | 0.00 | 0.15 | 0.15 | 89 | 1010.4 |
| 20260506182506 | 65 | 222 | 3.0 | 6.0 | 0.00 | 0.15 | 0.15 | 89 | 1010.4 |
| 20260506182006 | 66 | 220 | 3.0 | 8.0 | 0.00 | 0.15 | 0.15 | 89 | 1010.6 |
| 20260506181506 | 66 | 233 | 3.0 | 8.0 | 0.00 | 0.15 | 0.15 | 89 | 1010.8 |
| 20260506181005 | 66 | 225 | 4.0 | 10.0 | 0.00 | 0.15 | 0.15 | 89 | 1010.9 |
| 20260506180505 | 66 | 230 | 3.0 | 10.0 | 0.00 | 0.15 | 0.15 | 89 | 1011.0 |
| 20260506180006 | 66 | 234 | 6.0 | 10.0 | 0.00 | 0.15 | 0.15 | 88 | 1011.0 |
| 20260506175505 | 66 | 226 | 3.0 | 7.0 | 0.00 | 0.15 | 0.15 | 89 | 1011.0 |
| 20260506175005 | 66 | 238 | 5.0 | 9.0 | 0.00 | 0.15 | 0.15 | 89 | 1011.1 |
| 20260506174505 | 66 | 228 | 5.0 | 9.0 | 0.00 | 0.15 | 0.15 | 89 | 1011.1 |
| 20260506174006 | 65 | 235 | 3.0 | 9.0 | 0.00 | 0.15 | 0.15 | 89 | 1011.0 |
| 20260506173505 | 65 | 224 | 5.0 | 8.0 | 0.00 | 0.15 | 0.15 | 89 | 1011.0 |
| 20260506173006 | 65 | 224 | 4.0 | 7.0 | 0.00 | 0.15 | 0.15 | 90 | 1010.9 |
| 20260506172506 | 65 | 227 | 3.0 | 12.0 | 0.00 | 0.15 | 0.15 | 90 | 1011.0 |
| 20260506172006 | 65 | 232 | 3.0 | 12.0 | 0.00 | 0.15 | 0.15 | 90 | 1011.0 |
| 20260506171505 | 65 | 226 | 3.0 | 7.0 | 0.00 | 0.15 | 0.15 | 90 | 1011.0 |
| 20260506171005 | 64 | 223 | 3.0 | 7.0 | 0.00 | 0.15 | 0.15 | 90 | 1010.9 |
| 20260506170506 | 64 | 219 | 4.0 | 7.0 | 0.00 | 0.15 | 0.15 | 91 | 1011.0 |
| 20260506170007 | 64 | 217 | 2.0 | 6.0 | 0.00 | 0.15 | 0.15 | 90 | 1011.3 |
| 20260506165506 | 64 | 221 | 2.0 | 6.0 | 0.00 | 0.15 | 0.15 | 90 | 1011.6 |
| 20260506165005 | 64 | 218 | 3.0 | 8.0 | 0.00 | 0.15 | 0.15 | 91 | 1011.4 |
| 20260506164506 | 64 | 239 | 3.0 | 8.0 | 0.00 | 0.15 | 0.15 | 91 | 1011.4 |
| 20260506164006 | 64 | 219 | 4.0 | 10.0 | 0.00 | 0.15 | 0.15 | 91 | 1011.5 |
| 20260506163505 | 64 | 221 | 3.0 | 10.0 | 0.00 | 0.15 | 0.15 | 91 | 1011.4 |
| 20260506163005 | 64 | 208 | 3.0 | 9.0 | 0.00 | 0.15 | 0.15 | 91 | 1011.5 |
| 20260506162505 | 64 | 214 | 5.0 | 8.0 | 0.00 | 0.15 | 0.15 | 91 | 1011.5 |
| 20260506162006 | 64 | 210 | 3.0 | 7.0 | 0.00 | 0.15 | 0.15 | 92 | 1011.2 |
| 20260506161505 | 63 | 242 | 3.0 | 7.0 | 0.01 | 0.15 | 0.15 | 92 | 1011.2 |
| 20260506161005 | 63 | 222 | 3.0 | 8.0 | 0.01 | 0.15 | 0.15 | 92 | 1011.2 |
| 20260506160505 | 63 | 231 | 3.0 | 8.0 | 0.01 | 0.15 | 0.15 | 92 | 1011.2 |
| 20260506160005 | 63 | 224 | 3.0 | 8.0 | 0.01 | 0.15 | 0.15 | 92 | 1011.4 |
| 20260506155505 | 63 | 233 | 3.0 | 7.0 | 0.01 | 0.15 | 0.15 | 92 | 1011.2 |
| 20260506155005 | 63 | 226 | 3.0 | 7.0 | 0.01 | 0.15 | 0.15 | 92 | 1011.4 |
| 20260506154506 | 63 | 166 | 2.0 | 7.0 | 0.01 | 0.15 | 0.15 | 92 | 1011.4 |
| 20260506154005 | 63 | 237 | 4.0 | 7.0 | 0.01 | 0.15 | 0.15 | 92 | 1011.6 |
| 20260506153505 | 63 | 234 | 2.0 | 6.0 | 0.05 | 0.15 | 0.15 | 92 | 1011.6 |
| 20260506153005 | 63 | 216 | 2.0 | 5.0 | 0.07 | 0.15 | 0.15 | 92 | 1011.8 |
| 20260506152505 | 63 | 218 | 3.0 | 5.0 | 0.09 | 0.15 | 0.15 | 93 | 1011.9 |
| 20260506152005 | 63 | 231 | 2.0 | 3.0 | 0.10 | 0.15 | 0.15 | 93 | 1011.9 |
| 20260506151505 | 63 | 220 | 2.0 | 5.0 | 0.11 | 0.14 | 0.14 | 92 | 1012.0 |
| 20260506151005 | 63 | 226 | 1.0 | 5.0 | 0.12 | 0.14 | 0.14 | 92 | 1012.0 |
| 20260506150505 | 63 | 236 | 0.0 | 3.0 | 0.13 | 0.14 | 0.14 | 92 | 1012.1 |
| 20260506150006 | 63 | 233 | 1.0 | 3.0 | 0.13 | 0.14 | 0.14 | 92 | 1012.1 |
| 20260506145504 | 62 | 227 | 1.0 | 3.0 | 0.13 | 0.14 | 0.14 | 92 | 1012.1 |
| 20260506145005 | 62 | 226 | 1.0 | 5.0 | 0.14 | 0.14 | 0.14 | 91 | 1012.1 |
| 20260506144505 | 62 | 211 | 1.0 | 5.0 | 0.14 | 0.14 | 0.14 | 90 | 1012.1 |
| 20260506144005 | 62 | 228 | 1.0 | 5.0 | 0.14 | 0.14 | 0.14 | 90 | 1012.2 |
| 20260506143506 | 63 | 229 | 0.0 | 3.0 | 0.10 | 0.10 | 0.10 | 90 | 1012.4 |
| 20260506143005 | 63 | 229 | 0.0 | 5.0 | 0.08 | 0.08 | 0.08 | 89 | 1012.4 |
| 20260506142504 | 63 | 226 | 2.0 | 5.0 | 0.06 | 0.06 | 0.06 | 88 | 1012.5 |
| 20260506142005 | 63 | 220 | 2.0 | 5.0 | 0.05 | 0.05 | 0.05 | 87 | 1012.4 |
| 20260506141505 | 64 | 231 | 2.0 | 5.0 | 0.03 | 0.03 | 0.03 | 86 | 1012.4 |
| 20260506141005 | 64 | 234 | 2.0 | 5.0 | 0.02 | 0.02 | 0.02 | 85 | 1012.4 |
| 20260506140505 | 64 | 231 | 2.0 | 8.0 | 0.01 | 0.01 | 0.01 | 85 | 1012.3 |
| 20260506140005 | 64 | 205 | 2.0 | 8.0 | 0.01 | 0.01 | 0.01 | 83 | 1012.2 |
| 20260506135505 | 65 | 222 | 3.0 | 8.0 | 0.01 | 0.01 | 0.01 | 82 | 1012.2 |
| 20260506135006 | 65 | 218 | 4.0 | 7.0 | 0.00 | 0.00 | 0.00 | 80 | 1012.2 |
| 20260506134505 | 66 | 214 | 3.0 | 8.0 | 0.00 | 0.00 | 0.00 | 79 | 1012.2 |
| 20260506134005 | 66 | 226 | 3.0 | 8.0 | 0.00 | 0.00 | 0.00 | 77 | 1012.2 |
| 20260506133505 | 66 | 231 | 4.0 | 8.0 | 0.00 | 0.00 | 0.00 | 77 | 1012.2 |
| 20260506133006 | 66 | 223 | 5.0 | 8.0 | 0.00 | 0.00 | 0.00 | 77 | 1012.1 |
| 20260506132505 | 66 | 225 | 5.0 | 8.0 | 0.00 | 0.00 | 0.00 | 76 | 1012.1 |
| 20260506132005 | 66 | 225 | 4.0 | 9.0 | 0.00 | 0.00 | 0.00 | 76 | 1012.0 |
| 20260506131507 | 66 | 230 | 5.0 | 9.0 | 0.00 | 0.00 | 0.00 | 76 | 1012.0 |
| 20260506131006 | 66 | 214 | 4.0 | 9.0 | 0.00 | 0.00 | 0.00 | 76 | 1012.0 |
| 20260506130505 | 66 | 229 | 5.0 | 8.0 | 0.00 | 0.00 | 0.00 | 77 | 1012.0 |
| 20260506130006 | 66 | 218 | 3.0 | 8.0 | 0.00 | 0.00 | 0.00 | 77 | 1011.9 |
| 20260506125504 | 66 | 229 | 3.0 | 8.0 | 0.00 | 0.00 | 0.00 | 77 | 1012.0 |
| 20260506125005 | 65 | 225 | 4.0 | 8.0 | 0.00 | 0.00 | 0.00 | 77 | 1011.8 |
| 20260506124505 | 65 | 230 | 4.0 | 8.0 | 0.00 | 0.00 | 0.00 | 77 | 1011.8 |
| 20260506124006 | 65 | 236 | 2.0 | 8.0 | 0.00 | 0.00 | 0.00 | 77 | 1011.9 |
| 20260506123505 | 65 | 223 | 3.0 | 8.0 | 0.00 | 0.00 | 0.00 | 77 | 1011.9 |
| 20260506123004 | 65 | 212 | 5.0 | 8.0 | 0.00 | 0.00 | 0.00 | 77 | 1011.9 |
| 20260506122504 | 65 | 213 | 5.0 | 12.0 | 0.00 | 0.00 | 0.00 | 77 | 1011.7 |
| 20260506122005 | 66 | 234 | 5.0 | 12.0 | 0.00 | 0.00 | 0.00 | 76 | 1011.6 |
| 20260506121505 | 66 | 225 | 4.0 | 9.0 | 0.00 | 0.00 | 0.00 | 76 | 1011.7 |
| 20260506121005 | 66 | 224 | 3.0 | 9.0 | 0.00 | 0.00 | 0.00 | 77 | 1011.6 |
| 20260506120505 | 66 | 228 | 5.0 | 8.0 | 0.00 | 0.00 | 0.00 | 77 | 1011.7 |
| 20260506120006 | 65 | 206 | 4.0 | 12.0 | 0.00 | 0.00 | 0.00 | 77 | 1011.7 |
| 20260506115505 | 65 | 206 | 6.0 | 12.0 | 0.00 | 0.00 | 0.00 | 77 | 1011.7 |
| 20260506115004 | 65 | 223 | 4.0 | 10.0 | 0.00 | 0.00 | 0.00 | 77 | 1011.8 |
| 20260506114505 | 65 | 226 | 4.0 | 10.0 | 0.00 | 0.00 | 0.00 | 77 | 1011.8 |
| 20260506114006 | 65 | 227 | 5.0 | 10.0 | 0.00 | 0.00 | 0.00 | 77 | 1011.7 |
| 20260506113505 | 65 | 227 | 5.0 | 10.0 | 0.00 | 0.00 | 0.00 | 77 | 1011.7 |
| 20260506113005 | 65 | 208 | 4.0 | 9.0 | 0.00 | 0.00 | 0.00 | 77 | 1011.7 |
| 20260506112505 | 65 | 230 | 5.0 | 8.0 | 0.00 | 0.00 | 0.00 | 77 | 1011.7 |
| 20260506112004 | 65 | 215 | 4.0 | 8.0 | 0.00 | 0.00 | 0.00 | 78 | 1011.7 |
| 20260506111506 | 65 | 232 | 4.0 | 7.0 | 0.00 | 0.00 | 0.00 | 78 | 1011.6 |
| 20260506111005 | 64 | 225 | 4.0 | 12.0 | 0.00 | 0.00 | 0.00 | 78 | 1011.6 |
| 20260506110505 | 64 | 214 | 5.0 | 12.0 | 0.00 | 0.00 | 0.00 | 78 | 1011.5 |
| 20260506110006 | 64 | 217 | 3.0 | 10.0 | 0.00 | 0.00 | 0.00 | 77 | 1011.5 |
| 20260506105505 | 64 | 217 | 5.0 | 12.0 | 0.00 | 0.00 | 0.00 | 77 | 1011.6 |
| 20260506105005 | 64 | 226 | 5.0 | 12.0 | 0.00 | 0.00 | 0.00 | 77 | 1011.7 |
| 20260506104504 | 64 | 214 | 2.0 | 7.0 | 0.00 | 0.00 | 0.00 | 77 | 1011.7 |
| 20260506104005 | 64 | 225 | 3.0 | 8.0 | 0.00 | 0.00 | 0.00 | 77 | 1011.7 |
| 20260506103505 | 64 | 221 | 5.0 | 8.0 | 0.00 | 0.00 | 0.00 | 77 | 1011.8 |
| 20260506103005 | 64 | 227 | 3.0 | 8.0 | 0.00 | 0.00 | 0.00 | 77 | 1011.9 |
| 20260506102505 | 64 | 220 | 5.0 | 8.0 | 0.00 | 0.00 | 0.00 | 77 | 1012.0 |
| 20260506102005 | 64 | 220 | 3.0 | 7.0 | 0.00 | 0.00 | 0.00 | 77 | 1011.9 |
| 20260506101505 | 64 | 212 | 3.0 | 8.0 | 0.00 | 0.00 | 0.00 | 77 | 1011.7 |
| 20260506101005 | 64 | 222 | 3.0 | 9.0 | 0.00 | 0.00 | 0.00 | 77 | 1011.6 |
| 20260506100504 | 64 | 227 | 5.0 | 9.0 | 0.00 | 0.00 | 0.00 | 77 | 1011.5 |
| 20260506100005 | 64 | 227 | 5.0 | 7.0 | 0.00 | 0.00 | 0.00 | 77 | 1011.6 |
| 20260506095505 | 64 | 228 | 2.0 | 6.0 | 0.00 | 0.00 | 0.00 | 77 | 1011.6 |
| 20260506095005 | 64 | 218 | 3.0 | 8.0 | 0.00 | 0.00 | 0.00 | 77 | 1011.4 |
| 20260506094504 | 64 | 197 | 4.0 | 8.0 | 0.00 | 0.00 | 0.00 | 77 | 1011.5 |
| 20260506094005 | 64 | 221 | 2.0 | 8.0 | 0.00 | 0.00 | 0.00 | 77 | 1011.5 |
| 20260506093505 | 65 | 222 | 3.0 | 7.0 | 0.00 | 0.00 | 0.00 | 77 | 1011.5 |
| 20260506093004 | 65 | 229 | 3.0 | 9.0 | 0.00 | 0.00 | 0.00 | 77 | 1011.4 |
| 20260506092505 | 65 | 215 | 3.0 | 9.0 | 0.00 | 0.00 | 0.00 | 77 | 1011.4 |
| 20260506092006 | 65 | 223 | 4.0 | 9.0 | 0.00 | 0.00 | 0.00 | 78 | 1011.4 |
| 20260506091504 | 65 | 227 | 3.0 | 8.0 | 0.00 | 0.00 | 0.00 | 78 | 1011.5 |
| 20260506091006 | 64 | 215 | 3.0 | 8.0 | 0.00 | 0.00 | 0.00 | 78 | 1011.5 |
| 20260506090505 | 64 | 217 | 5.0 | 8.0 | 0.00 | 0.00 | 0.00 | 78 | 1011.6 |
| 20260506090005 | 64 | 223 | 2.0 | 8.0 | 0.00 | 0.00 | 0.00 | 78 | 1011.7 |
| 20260506085504 | 64 | 228 | 3.0 | 5.0 | 0.00 | 0.00 | 0.00 | 78 | 1011.7 |
| 20260506085005 | 64 | 222 | 2.0 | 5.0 | 0.00 | 0.00 | 0.00 | 78 | 1011.7 |
| 20260506084505 | 64 | 220 | 2.0 | 5.0 | 0.00 | 0.00 | 0.00 | 78 | 1011.8 |
| 20260506084004 | 64 | 223 | 3.0 | 5.0 | 0.00 | 0.00 | 0.00 | 78 | 1011.8 |
| 20260506083504 | 65 | 203 | 2.0 | 8.0 | 0.00 | 0.00 | 0.00 | 78 | 1011.9 |
| 20260506083004 | 65 | 222 | 3.0 | 8.0 | 0.00 | 0.00 | 0.00 | 78 | 1012.1 |
| 20260506082504 | 65 | 232 | 2.0 | 5.0 | 0.00 | 0.00 | 0.00 | 78 | 1012.0 |
| 20260506082005 | 65 | 231 | 2.0 | 5.0 | 0.00 | 0.00 | 0.00 | 78 | 1012.0 |
| 20260506081505 | 65 | 222 | 3.0 | 5.0 | 0.00 | 0.00 | 0.00 | 77 | 1012.0 |
| 20260506081005 | 65 | 223 | 2.0 | 5.0 | 0.00 | 0.00 | 0.00 | 77 | 1011.9 |
| 20260506080506 | 65 | 216 | 2.0 | 5.0 | 0.00 | 0.00 | 0.00 | 77 | 1011.9 |
| 20260506073505 | 65 | 224 | 1.0 | 7.0 | 0.00 | 0.00 | 0.00 | 76 | 1012.0 |
| 20260506073005 | 65 | 234 | 3.0 | 7.0 | 0.00 | 0.00 | 0.00 | 76 | 1012.0 |
| 20260506072504 | 65 | 214 | 2.0 | 5.0 | 0.00 | 0.00 | 0.00 | 76 | 1011.9 |
| 20260506072005 | 66 | 219 | 2.0 | 5.0 | 0.00 | 0.00 | 0.00 | 76 | 1012.0 |
| 20260506071504 | 66 | 218 | 1.0 | 8.0 | 0.00 | 0.00 | 0.00 | 75 | 1012.0 |
| 20260506071005 | 66 | 222 | 3.0 | 8.0 | 0.00 | 0.00 | 0.00 | 75 | 1012.1 |
| 20260506070505 | 66 | 223 | 2.0 | 7.0 | 0.00 | 0.00 | 0.00 | 75 | 1012.1 |
| 20260506062505 | 67 | 225 | 3.0 | 9.0 | 0.00 | 0.00 | 0.00 | 74 | 1012.4 |
| 20260506062005 | 67 | 235 | 3.0 | 8.0 | 0.00 | 0.00 | 0.00 | 74 | 1012.3 |
| 20260506061504 | 67 | 228 | 3.0 | 8.0 | 0.00 | 0.00 | 0.00 | 73 | 1012.3 |
| 20260506061004 | 67 | 214 | 3.0 | 13.0 | 0.00 | 0.00 | 0.00 | 73 | 1012.2 |
| 20260506060504 | 67 | 200 | 4.0 | 13.0 | 0.00 | 0.00 | 0.00 | 73 | 1012.2 |
| 20260506051004 | 68 | 200 | 3.0 | 12.0 | 0.00 | 0.00 | 0.00 | 70 | 1012.6 |
| 20260506050505 | 69 | 213 | 3.0 | 12.0 | 0.00 | 0.00 | 0.00 | 70 | 1012.6 |
| 20260506045005 | 69 | 224 | 2.0 | 9.0 | 0.00 | 0.00 | 0.00 | 69 | 1012.8 |
| 20260506044504 | 69 | 220 | 3.0 | 8.0 | 0.00 | 0.00 | 0.00 | 69 | 1012.8 |
| 20260506044004 | 69 | 221 | 5.0 | 9.0 | 0.00 | 0.00 | 0.00 | 69 | 1012.9 |
| 20260506043505 | 69 | 223 | 5.0 | 10.0 | 0.00 | 0.00 | 0.00 | 69 | 1012.9 |
| 20260506043005 | 69 | 234 | 3.0 | 10.0 | 0.00 | 0.00 | 0.00 | 68 | 1013.0 |
| 20260506042505 | 70 | 234 | 3.0 | 9.0 | 0.00 | 0.00 | 0.00 | 67 | 1012.9 |
| 20260506042005 | 70 | 229 | 3.0 | 7.0 | 0.00 | 0.00 | 0.00 | 67 | 1012.9 |
| 20260506041505 | 70 | 217 | 3.0 | 6.0 | 0.00 | 0.00 | 0.00 | 66 | 1012.9 |
| 20260506041004 | 70 | 219 | 3.0 | 10.0 | 0.00 | 0.00 | 0.00 | 66 | 1012.9 |
| 20260506040504 | 70 | 210 | 3.0 | 10.0 | 0.00 | 0.00 | 0.00 | 65 | 1012.9 |
| 20260506040004 | 71 | 161 | 3.0 | 12.0 | 0.00 | 0.00 | 0.00 | 64 | 1012.9 |
| 20260506035504 | 71 | 166 | 5.0 | 12.0 | 0.00 | 0.00 | 0.00 | 64 | 1012.9 |
| 20260506035006 | 71 | 219 | 4.0 | 10.0 | 0.00 | 0.00 | 0.00 | 64 | 1012.8 |
| 20260506034504 | 71 | 213 | 5.0 | 10.0 | 0.00 | 0.00 | 0.00 | 63 | 1012.8 |
| 20260506034004 | 71 | 228 | 4.0 | 9.0 | 0.00 | 0.00 | 0.00 | 63 | 1012.7 |
| 20260506033504 | 71 | 209 | 3.0 | 8.0 | 0.00 | 0.00 | 0.00 | 62 | 1012.7 |
| 20260506033005 | 71 | 203 | 4.0 | 8.0 | 0.00 | 0.00 | 0.00 | 62 | 1012.8 |
| 20260506032505 | 72 | 218 | 3.0 | 9.0 | 0.00 | 0.00 | 0.00 | 62 | 1012.9 |
| 20260506032005 | 72 | 222 | 5.0 | 9.0 | 0.00 | 0.00 | 0.00 | 61 | 1012.8 |
| 20260506031504 | 72 | 224 | 3.0 | 10.0 | 0.00 | 0.00 | 0.00 | 61 | 1012.7 |
| 20260506031005 | 72 | 226 | 4.0 | 10.0 | 0.00 | 0.00 | 0.00 | 61 | 1012.7 |
| 20260506030504 | 72 | 231 | 3.0 | 9.0 | 0.00 | 0.00 | 0.00 | 61 | 1012.7 |
| 20260506030004 | 72 | 224 | 3.0 | 9.0 | 0.00 | 0.00 | 0.00 | 60 | 1012.7 |
| 20260506025504 | 72 | 225 | 3.0 | 6.0 | 0.00 | 0.00 | 0.00 | 60 | 1012.6 |
| 20260506025005 | 72 | 212 | 3.0 | 6.0 | 0.00 | 0.00 | 0.00 | 60 | 1012.7 |
| 20260506024504 | 72 | 213 | 4.0 | 10.0 | 0.00 | 0.00 | 0.00 | 60 | 1012.8 |
| 20260506024004 | 72 | 199 | 4.0 | 10.0 | 0.00 | 0.00 | 0.00 | 59 | 1012.8 |
| 20260506023504 | 73 | 212 | 3.0 | 6.0 | 0.00 | 0.00 | 0.00 | 59 | 1012.8 |
| 20260506023004 | 73 | 228 | 3.0 | 8.0 | 0.00 | 0.00 | 0.00 | 59 | 1012.7 |
| 20260506022504 | 73 | 226 | 4.0 | 8.0 | 0.00 | 0.00 | 0.00 | 58 | 1012.7 |
| 20260506022004 | 73 | 226 | 3.0 | 6.0 | 0.00 | 0.00 | 0.00 | 58 | 1012.7 |
| 20260506021504 | 73 | 224 | 2.0 | 8.0 | 0.00 | 0.00 | 0.00 | 58 | 1012.8 |
| 20260506021005 | 73 | 215 | 4.0 | 8.0 | 0.00 | 0.00 | 0.00 | 58 | 1012.7 |
| 20260506020504 | 73 | 208 | 3.0 | 7.0 | 0.00 | 0.00 | 0.00 | 58 | 1012.7 |
| 20260506020004 | 73 | 223 | 2.0 | 7.0 | 0.00 | 0.00 | 0.00 | 57 | 1012.7 |
| 20260506015505 | 73 | 219 | 3.0 | 7.0 | 0.00 | 0.00 | 0.00 | 57 | 1012.6 |